User: anonymous   Login
Location: Unspecified
(0.0000°N, 0.0000°E)
Time: 18:09:46
(UTC+00:00)
Language:

FALCON 9 R/B - Orbit

View from above orbital plane
View from above orbital plane
View from above satellite
View from above satellite

Ground track
Ground track

The orbit data is extracted from the following two-line orbital elements,

1 37253U 10066K   17022.48505047  .00002918  00000-0  24260-3 0  9995
2 37253  34.5189 208.2103 4292143 246.8583  62.9964  6.88515145150532
Epoch (UTC): 22 January 2017 11:38:28
Eccentricity: 0.4292143
inclination: 34.5189°
perigee height: 284 km
apogee height: 10303 km
right ascension of ascending node: 208.2103°
argument of perigee: 246.8583°
revolutions per day: 6.88515145
mean anomaly at epoch: 62.9964°
orbit number at epoch: 15053

The dashed part of the orbit path shows where the satellite is in the earth's shadow,  

DLR